Location: Newark
(49.8969°N, 3.3422°E)
Time: 03:42:28
(UTC+00:00)

Transit 2A - All Passes

Search period start: 28 January 2020 00:00
Search period end: 07 February 2020 00:00
Orbit: 601 x 958 km, 66.7° (Epoch: 27 January)

Date Brightness Start Highest point End Pass type
(mag) Time Alt. Az. Time Alt. Az. Time Alt. Az.
28 Jan - 01:25:34 10° NNW 01:28:47 18° NNE 01:32:09 10° ENE night (unlit)
28 Jan - 03:08:01 10° NNW 03:12:43 69° NE 03:17:51 10° SE visible
28 Jan - 04:51:53 10° WNW 04:55:30 21° WSW 04:59:21 10° SSW visible
28 Jan - 17:54:40 10° SSE 17:57:25 17° ESE 18:00:11 10° ENE visible
28 Jan - 19:35:40 10° SW 19:40:01 69° NW 19:44:24 10° NNE visible
28 Jan - 21:21:09 10° WNW 21:23:59 17° NNW 21:26:54 10° NNE visible
29 Jan - 00:51:37 10° N 00:54:21 15° NNE 00:57:10 10° ENE night (unlit)
29 Jan - 02:33:57 10° NNW 02:38:32 51° NE 02:43:31 10° SE night (unlit)
29 Jan - 04:17:21 10° NW 04:21:31 29° WSW 04:26:01 10° S visible
29 Jan - 17:22:21 10° ESE 17:23:32 11° ESE 17:24:42 10° E visible
29 Jan - 19:01:31 10° SSW 19:05:53 83° ESE 19:10:16 10° NE visible
29 Jan - 20:46:18 10° W 20:49:35 21° NNW 20:52:57 10° NNE visible
30 Jan - 00:17:42 10° N 00:19:52 13° NNE 00:22:05 10° NE night (unlit)
30 Jan - 01:59:54 10° NNW 02:04:17 38° NE 02:09:02 10° ESE night (unlit)
30 Jan - 03:42:59 10° NW 03:47:29 41° WSW 03:52:25 10° S night (unlit)
30 Jan - 18:27:31 10° SSW 18:31:48 56° ESE 18:36:05 10° NE visible
30 Jan - 20:11:34 10° W 20:15:14 26° NW 20:18:58 10° NNE visible
30 Jan - 21:59:08 10° NNW 22:00:01 10° NNW 22:00:54 10° N night (unlit)
30 Jan - 23:43:50 10° N 23:45:22 11° NNE 23:46:54 10° NE night (unlit)
31 Jan - 01:25:54 10° NNW 01:30:00 30° NE 01:34:26 10° E night (unlit)
31 Jan - 03:08:44 10° NW 03:13:26 58° WSW 03:18:35 10° SSE night (unlit)
31 Jan - 17:53:43 10° S 17:57:46 38° ESE 18:01:49 10° NE visible
31 Jan - 19:36:58 10° WSW 19:40:55 34° NW 19:44:58 10° NNE visible
31 Jan - 21:23:50 10° NW 21:25:29 12° NNW 21:27:09 10° N visible
31 Jan - 23:10:07 10° N 23:10:49 10° N 23:11:31 10° NNE night (unlit)
01 Feb - 00:51:54 10° NNW 00:55:41 24° NE 00:59:42 10° E night (unlit)
01 Feb - 02:34:33 10° NW 02:39:20 81° SW 02:44:35 10° SSE night (unlit)
01 Feb - 04:19:22 10° WNW 04:21:52 14° WSW 04:24:29 10° SW night (unlit)
01 Feb - 17:20:09 10° S 17:23:46 26° ESE 17:27:24 10° ENE visible
01 Feb - 19:02:29 10° WSW 19:06:40 45° NW 19:10:56 10° NNE visible
01 Feb - 20:48:44 10° NW 20:50:59 14° NNW 20:53:16 10° N visible
02 Feb - 00:17:56 10° NNW 00:21:18 19° NNE 00:24:51 10° ENE night (unlit)
02 Feb - 02:00:26 10° NW 02:05:11 74° NE 02:10:26 10° SE night (unlit)
02 Feb - 03:44:25 10° WNW 03:47:57 20° WSW 03:51:42 10° SSW night (unlit)
02 Feb - 16:46:53 10° SSE 16:49:50 18° ESE 16:52:46 10° ENE daylight
02 Feb - 18:28:09 10° SW 18:32:29 64° NW 18:36:52 10° NNE visible
02 Feb - 20:13:44 10° WNW 20:16:31 16° NNW 20:19:20 10° NNE visible
02 Feb - 23:43:59 10° NNW 23:46:53 16° NNE 23:49:54 10° ENE night (unlit)
03 Feb - 01:26:21 10° NNW 01:31:00 54° NE 01:36:07 10° SE night (unlit)
03 Feb - 03:09:50 10° NW 03:13:59 28° WSW 03:18:26 10° S night (unlit)
03 Feb - 16:14:17 10° SE 16:15:56 12° ESE 16:17:36 10° E daylight
03 Feb - 17:53:58 10° SW 17:58:19 89° SE 18:02:44 10° NE visible
03 Feb - 19:38:52 10° W 19:42:06 20° NNW 19:45:24 10° NNE visible
03 Feb - 23:10:03 10° N 23:12:25 14° NNE 23:14:51 10° NE night (unlit)
04 Feb - 00:52:18 10° NNW 00:56:46 41° NE 01:01:40 10° ESE night (unlit)
04 Feb - 02:35:27 10° NW 02:39:57 39° WSW 02:44:52 10° S night (unlit)
04 Feb - 17:19:57 10° SSW 17:24:13 61° ESE 17:28:34 10° NE visible
04 Feb - 19:04:07 10° W 19:07:43 25° NW 19:11:25 10° NNE visible
04 Feb - 20:51:44 10° NNW 20:52:33 10° N 20:53:23 10° N visible
04 Feb - 22:36:08 10° N 22:37:54 12° NNE 22:39:43 10° NE night (unlit)
05 Feb - 00:18:17 10° NNW 00:22:31 31° NE 00:27:05 10° ESE night (unlit)
05 Feb - 02:01:11 10° NW 02:05:54 55° WSW 02:11:06 10° SSE night (unlit)
05 Feb - 16:46:06 10° S 16:50:11 41° ESE 16:54:18 10° NE daylight
05 Feb - 18:29:29 10° WSW 18:33:24 32° NW 18:37:25 10° NNE visible
05 Feb - 20:16:26 10° NW 20:18:00 12° NNW 20:19:37 10° N visible
05 Feb - 22:02:17 10° N 22:03:22 11° NNE 22:04:28 10° NNE visible
05 Feb - 23:44:17 10° NNW 23:48:11 25° NE 23:52:22 10° E night (unlit)
06 Feb - 01:26:59 10° NW 01:31:48 76° SW 01:37:07 10° SSE night (unlit)
06 Feb - 03:12:01 10° W 03:14:18 13° WSW 03:16:41 10° SW night (unlit)
06 Feb - 16:12:28 10° S 16:16:11 28° ESE 16:19:56 10° NE daylight
06 Feb - 17:55:00 10° WSW 17:59:08 43° NW 18:03:23 10° NNE visible
06 Feb - 19:41:20 10° NW 19:43:30 13° NNW 19:45:44 10° N visible
06 Feb - 23:10:18 10° NNW 23:13:50 20° NNE 23:17:33 10° E night (unlit)
